DW4839 Weather Reports


time (UTC)temp
F
wind
direction
speed
knots
gust
knots
rain 1hr
in
rain 24hr
in
rain mn
in
humidity
%
barometer
mb
20260506211549 61 230 0.9 3.5 0.00 0.00 0.00 76 1021.0
20260506210046 61 278 2.6 5.2 0.00 0.00 0.00 76 1021.0
20260506204554 59 163 0.9 5.2 0.00 0.00 0.00 80 1020.9
20260506203047 60 178 2.6 6.1 0.00 0.00 0.00 81 1021.0
20260506201547 59 162 1.7 5.2 0.00 0.00 0.00 81 1021.0
20260506200107 58 221 0.0 2.6 0.00 0.00 0.00 81 1021.2
20260506194606 58 0 0.0 2.6 0.00 0.00 0.00 82 1021.3
20260506193047 58 210 1.7 4.3 0.00 0.00 0.00 81 1021.5
20260506191547 58 187 1.7 6.1 0.00 0.00 0.00 83 1021.1
20260506190053 57 281 1.7 3.5 0.00 0.00 0.00 83 1021.2
20260506184548 57 182 3.5 7.0 0.00 0.00 0.00 84 1021.1
20260506183104 56 227 0.9 2.6 0.00 0.00 0.00 85 1021.1
20260506181557 56 352 0.0 1.7 0.00 0.00 0.00 86 1021.1
20260506180051 55 188 0.9 1.7 0.00 0.00 0.00 86 1021.1
20260506174547 55 179 0.0 2.6 0.00 0.00 0.00 86 1021.0
20260506173059 54 115 0.0 2.6 0.00 0.00 0.00 87 1020.8
20260506171554 54 214 0.0 1.7 0.00 0.00 0.00 86 1020.7
20260506170053 55 305 0.0 1.7 0.00 0.00 0.00 87 1020.8
20260506164555 55 42 0.9 2.6 0.00 0.00 0.00 86 1020.8
20260506163055 55 217 0.9 2.6 0.00 0.00 0.00 86 1020.6
20260506161603 54 194 0.9 5.2 0.00 0.00 0.00 87 1020.5
20260506160055 53 0 0.0 3.5 0.00 0.00 0.00 87 1020.2
20260506154555 53 137 1.7 3.5 0.00 0.00 0.00 88 1019.8
20260506153051 52 333 0.9 2.6 0.00 0.00 0.00 89 1020.6
20260506151605 52 349 1.7 4.3 0.00 0.00 0.00 89 1020.8
20260506150051 53 11 1.7 5.2 0.00 0.00 0.00 89 1020.7
20260506144552 53 342 1.7 4.3 0.00 0.00 0.00 89 1020.5
20260506143054 53 360 1.7 2.6 0.00 0.00 0.00 89 1020.1
20260506141553 53 50 0.9 2.6 0.00 0.00 0.00 89 1019.8
20260506140106 53 30 0.0 0.9 0.00 0.00 0.00 89 1020.0
20260506134553 53 25 0.9 1.7 0.00 0.00 0.00 88 1019.9
20260506133057 53 190 0.0 1.7 0.00 0.00 0.00 88 1019.6
20260506131555 53 190 0.9 1.7 0.00 0.00 0.00 88 1019.5
20260506130105 52 5 0.9 1.7 0.00 0.00 0.00 89 1019.4
20260506124553 52 0 0.0 3.5 0.00 0.00 0.00 89 1019.3
20260506123052 52 350 2.6 5.2 0.00 0.00 0.00 89 1019.3
20260506121550 52 360 2.6 6.1 0.00 0.00 0.00 89 1019.4
20260506120053 52 352 2.6 7.0 0.00 0.00 0.00 88 1019.3
20260506114550 52 9 2.6 7.0 0.00 0.00 0.00 88 1019.0
20260506113047 52 14 2.6 6.1 0.00 0.00 0.00 88 1018.9
20260506111553 53 348 3.5 6.1 0.00 0.00 0.00 88 1018.8
20260506110100 53 341 2.6 4.3 0.00 0.00 0.00 88 1018.5
20260506104558 53 5 1.7 2.6 0.00 0.00 0.00 88 1018.3
20260506103048 53 352 0.9 1.7 0.00 0.00 0.00 87 1018.2
20260506101556 53 352 0.9 3.5 0.00 0.00 0.00 88 1018.0
20260506100050 54 0 1.7 2.6 0.00 0.00 0.00 87 1018.0
20260506094556 54 352 0.9 3.5 0.00 0.00 0.00 87 1018.0
20260506093055 54 5 1.7 3.5 0.00 0.00 0.00 87 1018.0
20260506091548 54 12 1.7 3.5 0.00 0.00 0.00 87 1018.0
20260506090049 54 5 1.7 3.5 0.00 0.00 0.00 87 1017.9
20260506084551 55 10 0.9 3.5 0.00 0.00 0.00 87 1018.0
20260506083051 55 5 1.7 2.6 0.00 0.00 0.00 87 1017.9
20260506081552 55 352 1.7 2.6 0.00 0.00 0.00 86 1018.0
20260506073105 57 217 0.0 1.7 0.00 0.00 0.00 83 1017.6
20260506071611 57 217 0.9 1.7 0.00 0.00 0.00 83 1017.6
20260506061553 57 186 1.7 4.3 0.00 0.00 0.00 80 1017.2
20260506044555 56 189 0.0 0.9 0.00 0.00 0.00 82 1016.8
20260506043050 56 189 0.0 1.7 0.00 0.00 0.00 83 1016.6
20260506041559 56 200 0.0 1.7 0.00 0.00 0.00 83 1016.5
20260506040050 56 200 0.0 1.7 0.00 0.00 0.00 82 1016.3
20260506034547 56 232 0.0 1.7 0.00 0.00 0.00 82 1016.2
20260506033052 56 232 0.0 1.7 0.00 0.00 0.00 81 1016.0
20260506031557 57 0 0.0 0.0 0.00 0.00 0.00 80 1015.8
20260506030052 58 232 0.0 1.7 0.00 0.00 0.00 78 1015.7
20260506024552 59 171 0.9 2.6 0.00 0.00 0.00 77 1015.5
20260506023049 59 173 0.0 1.7 0.00 0.00 0.00 77 1015.6
20260506021557 59 185 0.0 1.7 0.00 0.00 0.00 77 1015.6
20260506020049 59 238 0.9 2.6 0.00 0.00 0.00 77 1015.5
20260506014555 59 252 0.9 1.7 0.00 0.00 0.00 76 1015.6
20260506013047 59 32 0.0 1.7 0.00 0.00 0.00 78 1015.6
20260506011548 59 31 0.0 1.7 0.00 0.00 0.00 78 1015.6
20260506010049 59 18 0.9 1.7 0.00 0.00 0.00 80 1015.7
20260506004555 59 34 0.9 1.7 0.00 0.00 0.00 77 1015.7
20260506003053 59 5 0.9 1.7 0.00 0.00 0.00 80 1015.7
20260506001608 59 331 0.9 1.7 0.00 0.00 0.00 78 1015.9
20260506000051 59 26 0.9 1.7 0.00 0.00 0.00 78 1015.9
20260505234553 59 5 0.9 3.5 0.00 0.00 0.00 80 1016.2
20260505233054 59 27 1.7 2.6 0.00 0.00 0.00 78 1016.1
20260505231552 59 30 0.0 1.7 0.00 0.00 0.00 80 1016.2
20260505230117 59 30 0.0 1.7 0.00 0.00 0.00 79 1016.3
20260505224552 59 339 0.0 2.6 0.00 0.00 0.00 78 1016.3
20260505223058 58 352 0.9 3.5 0.00 0.00 0.00 80 1016.4
20260505221555 58 22 3.5 6.1 0.00 0.00 0.00 79 1016.5
20260505220051 58 352 1.7 3.5 0.00 0.00 0.00 80 1016.6
20260505214601 58 352 1.7 3.5 0.00 0.00 0.00 79 1016.5
20260505213056 58 352 0.9 3.5 0.00 0.00 0.00 79 1016.5